| time (UTC) | temp C | wind direction | speed KPH | gust KPH | rain 1hr cm | rain 24hr cm | rain mn cm | humidity % | barometer mb |
| 20260507012552 | 6 | 340 | 0.0 | 3.2 | 0.00 | 0.00 | 0.00 | 54 | 1014.6 |
| 20260507012051 | 6 | 0 | 0.0 | 0.0 | 0.00 | 0.00 | 0.00 | 53 | 1014.6 |
| 20260507011600 | 6 | 0 | 0.0 | 0.0 | 0.00 | 0.00 | 0.00 | 52 | 1014.5 |
| 20260507011046 | 7 | 0 | 0.0 | 0.0 | 0.00 | 0.00 | 0.00 | 51 | 1014.6 |
| 20260507010548 | 7 | 0 | 0.0 | 3.2 | 0.00 | 0.00 | 0.00 | 51 | 1014.6 |
| 20260507010055 | 7 | 0 | 0.0 | 3.2 | 0.00 | 0.00 | 0.00 | 51 | 1014.6 |
| 20260507005546 | 7 | 347 | 1.6 | 4.8 | 0.00 | 0.00 | 0.00 | 50 | 1014.6 |
| 20260507005048 | 7 | 9 | 0.0 | 4.8 | 0.00 | 0.00 | 0.00 | 49 | 1014.6 |
| 20260507004600 | 7 | 72 | 1.6 | 4.8 | 0.00 | 0.00 | 0.00 | 48 | 1014.6 |
| 20260507004050 | 7 | 0 | 0.0 | 8.0 | 0.00 | 0.00 | 0.00 | 48 | 1014.7 |
| 20260507003549 | 7 | 0 | 1.6 | 8.0 | 0.00 | 0.00 | 0.00 | 48 | 1014.8 |
| 20260507003056 | 8 | 14 | 1.6 | 12.9 | 0.00 | 0.00 | 0.00 | 48 | 1014.8 |
| 20260507002548 | 8 | 0 | 3.2 | 16.1 | 0.00 | 0.00 | 0.00 | 48 | 1014.9 |
| 20260507002045 | 8 | 32 | 8.0 | 16.1 | 0.00 | 0.00 | 0.00 | 45 | 1014.9 |
| 20260507001603 | 8 | 23 | 3.2 | 14.5 | 0.00 | 0.00 | 0.00 | 48 | 1014.9 |
| 20260507001048 | 8 | 5 | 3.2 | 8.0 | 0.00 | 0.00 | 0.00 | 46 | 1014.9 |
| 20260507000546 | 8 | 288 | 1.6 | 6.4 | 0.00 | 0.00 | 0.00 | 47 | 1015.0 |
| 20260507000057 | 8 | 42 | 1.6 | 9.7 | 0.00 | 0.00 | 0.00 | 48 | 1015.2 |
| 20260506235548 | 8 | 355 | 3.2 | 9.7 | 0.00 | 0.00 | 0.00 | 47 | 1015.2 |
| 20260506235048 | 8 | 34 | 1.6 | 8.0 | 0.00 | 0.00 | 0.00 | 50 | 1015.2 |
| 20260506234624 | 8 | 329 | 1.6 | 11.3 | 0.00 | 0.00 | 0.00 | 48 | 1015.3 |
| 20260506234049 | 8 | 11 | 1.6 | 11.3 | 0.00 | 0.00 | 0.00 | 48 | 1015.2 |
| 20260506233549 | 8 | 0 | 3.2 | 19.3 | 0.00 | 0.00 | 0.00 | 48 | 1015.4 |
| 20260506233056 | 8 | 65 | 6.4 | 19.3 | 0.00 | 0.00 | 0.00 | 47 | 1015.5 |
| 20260506232549 | 8 | 317 | 1.6 | 8.0 | 0.00 | 0.00 | 0.00 | 46 | 1015.5 |
| 20260506232048 | 8 | 18 | 1.6 | 17.7 | 0.00 | 0.00 | 0.00 | 49 | 1015.5 |
| 20260506231555 | 8 | 277 | 4.8 | 17.7 | 0.00 | 0.00 | 0.00 | 49 | 1015.5 |
| 20260506231052 | 8 | 275 | 1.6 | 20.9 | 0.00 | 0.00 | 0.00 | 47 | 1015.4 |
| 20260506230553 | 8 | 12 | 8.0 | 20.9 | 0.00 | 0.00 | 0.00 | 46 | 1015.5 |
| 20260506230058 | 8 | 9 | 9.7 | 20.9 | 0.00 | 0.00 | 0.00 | 47 | 1015.6 |
| 20260506225551 | 9 | 15 | 4.8 | 14.5 | 0.00 | 0.00 | 0.00 | 47 | 1015.5 |
| 20260506225048 | 9 | 27 | 1.6 | 9.7 | 0.00 | 0.00 | 0.00 | 45 | 1015.6 |
| 20260506224553 | 9 | 294 | 3.2 | 8.0 | 0.00 | 0.00 | 0.00 | 45 | 1015.5 |
| 20260506224046 | 8 | 238 | 1.6 | 8.0 | 0.00 | 0.00 | 0.00 | 46 | 1015.5 |
| 20260506223548 | 8 | 250 | 3.2 | 12.9 | 0.00 | 0.00 | 0.00 | 47 | 1015.6 |
| 20260506223100 | 8 | 22 | 1.6 | 12.9 | 0.00 | 0.00 | 0.00 | 45 | 1015.5 |
| 20260506222550 | 8 | 16 | 3.2 | 12.9 | 0.00 | 0.00 | 0.00 | 47 | 1015.6 |
| 20260506222049 | 8 | 76 | 4.8 | 12.9 | 0.00 | 0.00 | 0.00 | 45 | 1015.7 |
| 20260506221555 | 9 | 170 | 1.6 | 14.5 | 0.00 | 0.00 | 0.00 | 45 | 1015.7 |
| 20260506221047 | 9 | 129 | 1.6 | 14.5 | 0.00 | 0.00 | 0.00 | 48 | 1015.8 |
| 20260506220551 | 9 | 157 | 4.8 | 14.5 | 0.00 | 0.00 | 0.00 | 46 | 1015.8 |
| 20260506220055 | 9 | 175 | 4.8 | 12.9 | 0.00 | 0.00 | 0.00 | 46 | 1015.8 |
| 20260506215550 | 9 | 215 | 3.2 | 12.9 | 0.00 | 0.00 | 0.00 | 48 | 1015.8 |
| 20260506215051 | 9 | 304 | 6.4 | 12.9 | 0.00 | 0.00 | 0.00 | 45 | 1015.9 |
| 20260506214554 | 9 | 187 | 3.2 | 16.1 | 0.00 | 0.00 | 0.00 | 48 | 1015.9 |
| 20260506214051 | 8 | 101 | 4.8 | 16.1 | 0.00 | 0.00 | 0.00 | 46 | 1016.0 |
| 20260506213552 | 8 | 277 | 3.2 | 12.9 | 0.00 | 0.00 | 0.00 | 45 | 1016.0 |
| 20260506213055 | 8 | 246 | 3.2 | 16.1 | 0.00 | 0.00 | 0.00 | 49 | 1016.0 |
| 20260506212550 | 8 | 273 | 6.4 | 19.3 | 0.00 | 0.00 | 0.00 | 47 | 1016.0 |
| 20260506212048 | 8 | 266 | 3.2 | 19.3 | 0.00 | 0.00 | 0.00 | 49 | 1016.1 |
| 20260506211554 | 8 | 311 | 6.4 | 16.1 | 0.00 | 0.00 | 0.00 | 47 | 1016.1 |
| 20260506211050 | 8 | 165 | 1.6 | 14.5 | 0.00 | 0.00 | 0.00 | 49 | 1016.3 |
| 20260506210548 | 8 | 188 | 3.2 | 27.4 | 0.00 | 0.00 | 0.00 | 50 | 1016.3 |
| 20260506210055 | 8 | 246 | 14.5 | 27.4 | 0.00 | 0.00 | 0.00 | 47 | 1016.4 |
| 20260506205548 | 9 | 273 | 3.2 | 16.1 | 0.00 | 0.00 | 0.00 | 47 | 1016.4 |
| 20260506205048 | 8 | 0 | 4.8 | 17.7 | 0.00 | 0.00 | 0.00 | 47 | 1016.5 |
| 20260506204600 | 8 | 250 | 3.2 | 17.7 | 0.00 | 0.00 | 0.00 | 50 | 1016.7 |
| 20260506204047 | 8 | 275 | 3.2 | 16.1 | 0.00 | 0.00 | 0.00 | 50 | 1016.6 |
| 20260506203550 | 8 | 339 | 3.2 | 16.1 | 0.00 | 0.00 | 0.00 | 47 | 1016.6 |
| 20260506203053 | 8 | 253 | 8.0 | 16.1 | 0.00 | 0.00 | 0.00 | 48 | 1016.8 |
| 20260506202554 | 8 | 251 | 1.6 | 14.5 | 0.00 | 0.00 | 0.00 | 50 | 1016.7 |
| 20260506202053 | 8 | 138 | 4.8 | 22.5 | 0.00 | 0.00 | 0.00 | 47 | 1016.8 |
| 20260506201556 | 8 | 45 | 8.0 | 22.5 | 0.00 | 0.00 | 0.00 | 45 | 1016.8 |
| 20260506201051 | 8 | 246 | 3.2 | 12.9 | 0.00 | 0.00 | 0.00 | 48 | 1017.0 |
| 20260506200554 | 8 | 309 | 3.2 | 17.7 | 0.00 | 0.00 | 0.00 | 50 | 1016.8 |
| 20260506200107 | 8 | 9 | 1.6 | 17.7 | 0.00 | 0.00 | 0.00 | 48 | 1016.8 |
| 20260506195553 | 8 | 209 | 9.7 | 17.7 | 0.00 | 0.00 | 0.00 | 48 | 1016.9 |
| 20260506195051 | 8 | 214 | 4.8 | 17.7 | 0.00 | 0.00 | 0.00 | 48 | 1017.0 |
| 20260506194606 | 8 | 184 | 4.8 | 17.7 | 0.00 | 0.00 | 0.00 | 50 | 1017.0 |
| 20260506194047 | 7 | 143 | 3.2 | 16.1 | 0.00 | 0.00 | 0.00 | 47 | 1017.0 |
| 20260506193547 | 7 | 26 | 3.2 | 16.1 | 0.00 | 0.00 | 0.00 | 53 | 1017.2 |
| 20260506193054 | 7 | 46 | 3.2 | 14.5 | 0.00 | 0.00 | 0.00 | 48 | 1017.1 |
| 20260506192547 | 7 | 28 | 8.0 | 14.5 | 0.00 | 0.00 | 0.00 | 48 | 1017.1 |
| 20260506192051 | 7 | 249 | 3.2 | 12.9 | 0.00 | 0.00 | 0.00 | 48 | 1017.1 |
| 20260506191556 | 7 | 130 | 4.8 | 12.9 | 0.00 | 0.00 | 0.00 | 48 | 1017.1 |
| 20260506191053 | 7 | 257 | 3.2 | 16.1 | 0.00 | 0.00 | 0.00 | 50 | 1017.1 |
| 20260506190550 | 7 | 360 | 4.8 | 22.5 | 0.00 | 0.00 | 0.00 | 49 | 1017.3 |
| 20260506190054 | 7 | 327 | 8.0 | 22.5 | 0.00 | 0.00 | 0.00 | 50 | 1017.2 |
| 20260506185548 | 7 | 272 | 4.8 | 16.1 | 0.00 | 0.00 | 0.00 | 48 | 1017.3 |
| 20260506185052 | 7 | 257 | 3.2 | 14.5 | 0.00 | 0.00 | 0.00 | 51 | 1017.2 |
| 20260506184559 | 7 | 261 | 4.8 | 20.9 | 0.00 | 0.00 | 0.00 | 50 | 1017.3 |
| 20260506184050 | 7 | 0 | 3.2 | 20.9 | 0.00 | 0.00 | 0.00 | 46 | 1017.3 |
| 20260506183551 | 7 | 319 | 4.8 | 27.4 | 0.00 | 0.00 | 0.00 | 50 | 1017.3 |
| 20260506183102 | 7 | 319 | 4.8 | 27.4 | 0.00 | 0.00 | 0.00 | 48 | 1017.4 |
| 20260506182548 | 7 | 67 | 6.4 | 20.9 | 0.00 | 0.00 | 0.00 | 48 | 1017.3 |
| 20260506182047 | 7 | 209 | 4.8 | 20.9 | 0.00 | 0.00 | 0.00 | 50 | 1017.5 |
| 20260506181559 | 7 | 144 | 6.4 | 16.1 | 0.00 | 0.00 | 0.00 | 53 | 1017.6 |
| 20260506181051 | 7 | 360 | 3.2 | 16.1 | 0.00 | 0.00 | 0.00 | 50 | 1017.4 |
| 20260506180552 | 7 | 324 | 4.8 | 16.1 | 0.00 | 0.00 | 0.00 | 50 | 1017.5 |
| 20260506180055 | 7 | 5 | 4.8 | 16.1 | 0.00 | 0.00 | 0.00 | 52 | 1017.7 |
| 20260506175548 | 7 | 208 | 6.4 | 16.1 | 0.00 | 0.00 | 0.00 | 50 | 1017.9 |
| 20260506175050 | 7 | 151 | 3.2 | 22.5 | 0.00 | 0.00 | 0.00 | 51 | 1017.7 |
| 20260506174554 | 6 | 271 | 9.7 | 22.5 | 0.00 | 0.00 | 0.00 | 51 | 1017.8 |
| 20260506174048 | 6 | 189 | 11.3 | 20.9 | 0.00 | 0.00 | 0.00 | 53 | 1017.8 |
| 20260506173551 | 6 | 252 | 4.8 | 19.3 | 0.00 | 0.00 | 0.00 | 52 | 1018.0 |
| 20260506173108 | 6 | 321 | 3.2 | 17.7 | 0.00 | 0.00 | 0.00 | 52 | 1017.9 |
| 20260506172548 | 6 | 347 | 8.0 | 17.7 | 0.00 | 0.00 | 0.00 | 51 | 1018.0 |
| 20260506172049 | 6 | 42 | 4.8 | 16.1 | 0.00 | 0.00 | 0.00 | 53 | 1018.1 |
| 20260506171600 | 6 | 110 | 4.8 | 19.3 | 0.00 | 0.00 | 0.00 | 52 | 1018.1 |
| 20260506171048 | 6 | 307 | 6.4 | 19.3 | 0.00 | 0.00 | 0.00 | 55 | 1018.2 |
| 20260506170549 | 6 | 32 | 4.8 | 12.9 | 0.00 | 0.00 | 0.00 | 54 | 1018.2 |
| 20260506170053 | 6 | 61 | 3.2 | 20.9 | 0.00 | 0.00 | 0.00 | 54 | 1018.2 |
| 20260506165549 | 6 | 5 | 3.2 | 20.9 | 0.00 | 0.00 | 0.00 | 56 | 1018.2 |
| 20260506165049 | 6 | 258 | 3.2 | 12.9 | 0.00 | 0.00 | 0.00 | 54 | 1018.3 |
| 20260506164557 | 6 | 261 | 3.2 | 20.9 | 0.00 | 0.00 | 0.00 | 54 | 1018.4 |
| 20260506164048 | 6 | 256 | 3.2 | 20.9 | 0.00 | 0.00 | 0.00 | 52 | 1018.6 |
| 20260506163550 | 6 | 251 | 4.8 | 19.3 | 0.00 | 0.00 | 0.00 | 53 | 1018.4 |
| 20260506163055 | 6 | 277 | 3.2 | 16.1 | 0.00 | 0.00 | 0.00 | 56 | 1018.4 |
| 20260506162549 | 6 | 123 | 4.8 | 16.1 | 0.00 | 0.00 | 0.00 | 53 | 1018.4 |
| 20260506162050 | 6 | 49 | 3.2 | 16.1 | 0.00 | 0.00 | 0.00 | 58 | 1018.3 |
| 20260506161605 | 6 | 350 | 3.2 | 14.5 | 0.00 | 0.00 | 0.00 | 56 | 1018.4 |
| 20260506161047 | 6 | 36 | 1.6 | 14.5 | 0.00 | 0.00 | 0.00 | 57 | 1018.4 |
| 20260506160551 | 5 | 48 | 4.8 | 14.5 | 0.00 | 0.00 | 0.00 | 56 | 1018.6 |
| 20260506160058 | 5 | 12 | 3.2 | 14.5 | 0.00 | 0.00 | 0.00 | 56 | 1018.6 |
| 20260506155552 | 5 | 5 | 3.2 | 14.5 | 0.00 | 0.00 | 0.00 | 57 | 1018.6 |
| 20260506155050 | 5 | 258 | 3.2 | 12.9 | 0.00 | 0.00 | 0.00 | 57 | 1018.5 |
| 20260506154556 | 5 | 66 | 3.2 | 8.0 | 0.00 | 0.00 | 0.00 | 58 | 1018.5 |
| 20260506154049 | 5 | 15 | 3.2 | 12.9 | 0.00 | 0.00 | 0.00 | 58 | 1018.5 |
| 20260506153550 | 5 | 290 | 3.2 | 12.9 | 0.00 | 0.00 | 0.00 | 58 | 1018.5 |
| 20260506153052 | 5 | 360 | 3.2 | 12.9 | 0.00 | 0.00 | 0.00 | 59 | 1018.5 |
| 20260506152549 | 5 | 0 | 1.6 | 9.7 | 0.00 | 0.00 | 0.00 | 61 | 1018.5 |
| 20260506152050 | 5 | 28 | 1.6 | 14.5 | 0.00 | 0.00 | 0.00 | 60 | 1018.4 |
| 20260506151606 | 4 | 71 | 3.2 | 14.5 | 0.00 | 0.00 | 0.00 | 61 | 1018.6 |
| 20260506151050 | 4 | 150 | 1.6 | 14.5 | 0.00 | 0.00 | 0.00 | 62 | 1018.5 |
| 20260506150550 | 4 | 0 | 3.2 | 14.5 | 0.00 | 0.00 | 0.00 | 61 | 1018.5 |
| 20260506150052 | 4 | 13 | 1.6 | 9.7 | 0.00 | 0.00 | 0.00 | 62 | 1018.5 |
| 20260506145548 | 4 | 42 | 1.6 | 11.3 | 0.00 | 0.00 | 0.00 | 62 | 1018.5 |
| 20260506145047 | 3 | 234 | 1.6 | 11.3 | 0.00 | 0.00 | 0.00 | 62 | 1018.5 |
| 20260506144603 | 3 | 15 | 3.2 | 11.3 | 0.00 | 0.00 | 0.00 | 63 | 1018.4 |
| 20260506144047 | 3 | 5 | 1.6 | 11.3 | 0.00 | 0.00 | 0.00 | 66 | 1018.4 |
| 20260506143549 | 3 | 30 | 3.2 | 14.5 | 0.00 | 0.00 | 0.00 | 65 | 1018.4 |
| 20260506143100 | 3 | 316 | 0.0 | 14.5 | 0.00 | 0.00 | 0.00 | 66 | 1018.4 |
| 20260506142547 | 3 | 308 | 3.2 | 14.5 | 0.00 | 0.00 | 0.00 | 65 | 1018.5 |
| 20260506142049 | 3 | 237 | 0.0 | 12.9 | 0.00 | 0.00 | 0.00 | 68 | 1018.5 |
| 20260506141550 | 3 | 0 | 3.2 | 12.9 | 0.00 | 0.00 | 0.00 | 67 | 1018.5 |
| 20260506141048 | 3 | 332 | 1.6 | 6.4 | 0.00 | 0.00 | 0.00 | 68 | 1018.5 |
| 20260506140550 | 3 | 0 | 1.6 | 9.7 | 0.00 | 0.00 | 0.00 | 67 | 1018.4 |
| 20260506140104 | 3 | 261 | 0.0 | 9.7 | 0.00 | 0.00 | 0.00 | 68 | 1018.4 |
| 20260506135548 | 3 | 165 | 1.6 | 9.7 | 0.00 | 0.00 | 0.00 | 68 | 1018.4 |
| 20260506135049 | 2 | 311 | 1.6 | 4.8 | 0.00 | 0.00 | 0.00 | 69 | 1018.4 |
| 20260506134557 | 2 | 226 | 1.6 | 6.4 | 0.00 | 0.00 | 0.00 | 69 | 1018.4 |
| 20260506134050 | 2 | 225 | 1.6 | 8.0 | 0.00 | 0.00 | 0.00 | 69 | 1018.3 |
| 20260506133549 | 2 | 342 | 1.6 | 8.0 | 0.00 | 0.00 | 0.00 | 69 | 1018.2 |
| 20260506133100 | 2 | 5 | 0.0 | 6.4 | 0.00 | 0.00 | 0.00 | 69 | 1018.2 |
| 20260506132548 | 2 | 71 | 1.6 | 6.4 | 0.00 | 0.00 | 0.00 | 69 | 1018.2 |
| 20260506132047 | 2 | 0 | 1.6 | 6.4 | 0.00 | 0.00 | 0.00 | 69 | 1018.1 |
| 20260506131601 | 2 | 105 | 1.6 | 6.4 | 0.00 | 0.00 | 0.00 | 69 | 1018.2 |
| 20260506131048 | 2 | 0 | 1.6 | 6.4 | 0.00 | 0.00 | 0.00 | 69 | 1018.1 |
| 20260506130550 | 2 | 72 | 0.0 | 6.4 | 0.00 | 0.00 | 0.00 | 69 | 1018.1 |
| 20260506130120 | 2 | 0 | 0.0 | 6.4 | 0.00 | 0.00 | 0.00 | 69 | 1018.1 |
| 20260506125548 | 2 | 103 | 0.0 | 6.4 | 0.00 | 0.00 | 0.00 | 69 | 1018.0 |
| 20260506125048 | 2 | 341 | 1.6 | 6.4 | 0.00 | 0.00 | 0.00 | 69 | 1017.9 |
| 20260506124553 | 2 | 284 | 0.0 | 6.4 | 0.00 | 0.00 | 0.00 | 69 | 1017.8 |
| 20260506124051 | 2 | 0 | 0.0 | 6.4 | 0.00 | 0.00 | 0.00 | 70 | 1017.8 |
| 20260506123552 | 2 | 153 | 1.6 | 4.8 | 0.00 | 0.00 | 0.00 | 70 | 1017.7 |
| 20260506123051 | 2 | 0 | 0.0 | 4.8 | 0.00 | 0.00 | 0.00 | 71 | 1017.6 |
| 20260506122548 | 2 | 0 | 0.0 | 6.4 | 0.00 | 0.00 | 0.00 | 71 | 1017.5 |
| 20260506122049 | 2 | 0 | 0.0 | 6.4 | 0.00 | 0.00 | 0.00 | 71 | 1017.5 |
| 20260506121555 | 2 | 323 | 1.6 | 4.8 | 0.00 | 0.00 | 0.00 | 72 | 1017.4 |
| 20260506121048 | 2 | 0 | 0.0 | 4.8 | 0.00 | 0.00 | 0.00 | 72 | 1017.4 |
| 20260506120550 | 1 | 284 | 1.6 | 6.4 | 0.00 | 0.00 | 0.00 | 72 | 1017.3 |
| 20260506120100 | 1 | 280 | 1.6 | 6.4 | 0.00 | 0.00 | 0.00 | 73 | 1017.1 |
| 20260506115550 | 1 | 281 | 0.0 | 4.8 | 0.00 | 0.00 | 0.00 | 73 | 1017.2 |
| 20260506115050 | 1 | 0 | 0.0 | 3.2 | 0.00 | 0.00 | 0.00 | 73 | 1017.0 |
| 20260506114550 | 1 | 0 | 0.0 | 4.8 | 0.00 | 0.00 | 0.00 | 73 | 1016.8 |
| 20260506114050 | 1 | 0 | 0.0 | 4.8 | 0.00 | 0.00 | 0.00 | 73 | 1016.9 |
| 20260506113547 | 1 | 128 | 0.0 | 3.2 | 0.00 | 0.00 | 0.00 | 73 | 1016.8 |
| 20260506113058 | 1 | 0 | 0.0 | 3.2 | 0.00 | 0.00 | 0.00 | 73 | 1016.8 |
| 20260506112551 | 1 | 0 | 0.0 | 3.2 | 0.00 | 0.00 | 0.00 | 73 | 1016.7 |
| 20260506112050 | 1 | 236 | 0.0 | 4.8 | 0.00 | 0.00 | 0.00 | 72 | 1016.7 |
| 20260506111554 | 1 | 0 | 0.0 | 4.8 | 0.00 | 0.00 | 0.00 | 72 | 1016.6 |
| 20260506111050 | 1 | 0 | 0.0 | 3.2 | 0.00 | 0.00 | 0.00 | 73 | 1016.6 |
| 20260506110550 | 1 | 0 | 0.0 | 3.2 | 0.00 | 0.00 | 0.00 | 72 | 1016.5 |
| 20260506105548 | 1 | 360 | 0.0 | 3.2 | 0.00 | 0.00 | 0.00 | 72 | 1016.5 |
| 20260506105049 | 1 | 0 | 0.0 | 3.2 | 0.00 | 0.00 | 0.00 | 71 | 1016.4 |
| 20260506104613 | 1 | 279 | 0.0 | 3.2 | 0.00 | 0.00 | 0.00 | 72 | 1016.4 |
| 20260506104048 | 1 | 0 | 0.0 | 3.2 | 0.00 | 0.00 | 0.00 | 72 | 1016.5 |
| 20260506103548 | 1 | 0 | 0.0 | 3.2 | 0.00 | 0.00 | 0.00 | 72 | 1016.5 |
| 20260506103054 | 1 | 0 | 0.0 | 4.8 | 0.00 | 0.00 | 0.00 | 72 | 1016.5 |
| 20260506102548 | 1 | 0 | 0.0 | 9.7 | 0.00 | 0.00 | 0.00 | 72 | 1016.6 |
| 20260506102047 | 1 | 260 | 3.2 | 9.7 | 0.00 | 0.00 | 0.00 | 72 | 1016.6 |
| 20260506101602 | 1 | 254 | 1.6 | 4.8 | 0.00 | 0.00 | 0.00 | 73 | 1016.5 |
| 20260506101048 | 1 | 0 | 0.0 | 1.6 | 0.00 | 0.00 | 0.00 | 73 | 1016.5 |
| 20260506100550 | 1 | 0 | 0.0 | 1.6 | 0.00 | 0.00 | 0.00 | 73 | 1016.5 |
| 20260506100055 | 1 | 255 | 0.0 | 3.2 | 0.00 | 0.00 | 0.00 | 73 | 1016.6 |
| 20260506095552 | 1 | 0 | 0.0 | 3.2 | 0.00 | 0.00 | 0.00 | 72 | 1016.5 |
| 20260506095048 | 1 | 0 | 0.0 | 3.2 | 0.00 | 0.00 | 0.00 | 71 | 1016.4 |
| 20260506094558 | 1 | 255 | 0.0 | 4.8 | 0.00 | 0.00 | 0.00 | 71 | 1016.3 |
| 20260506094047 | 1 | 0 | 0.0 | 4.8 | 0.00 | 0.00 | 0.00 | 71 | 1016.3 |
| 20260506093548 | 1 | 277 | 0.0 | 6.4 | 0.00 | 0.00 | 0.00 | 71 | 1016.6 |
| 20260506093100 | 1 | 0 | 1.6 | 6.4 | 0.00 | 0.00 | 0.00 | 71 | 1016.5 |
| 20260506092548 | 1 | 238 | 1.6 | 4.8 | 0.00 | 0.00 | 0.00 | 71 | 1016.4 |
| 20260506092048 | 1 | 0 | 1.6 | 3.2 | 0.00 | 0.00 | 0.00 | 71 | 1016.4 |
| 20260506091551 | 1 | 98 | 0.0 | 4.8 | 0.00 | 0.00 | 0.00 | 71 | 1016.4 |
| 20260506091050 | 1 | 0 | 0.0 | 4.8 | 0.00 | 0.00 | 0.00 | 71 | 1016.3 |
| 20260506090555 | 1 | 295 | 0.0 | 4.8 | 0.00 | 0.00 | 0.00 | 71 | 1016.2 |
| 20260506090056 | 1 | 94 | 0.0 | 6.4 | 0.00 | 0.00 | 0.00 | 70 | 1016.2 |
| 20260506085547 | 1 | 232 | 1.6 | 6.4 | 0.00 | 0.00 | 0.00 | 70 | 1016.2 |
| 20260506085048 | 1 | 163 | 0.0 | 6.4 | 0.00 | 0.00 | 0.00 | 70 | 1016.2 |
| 20260506084554 | 1 | 213 | 0.0 | 4.8 | 0.00 | 0.00 | 0.00 | 70 | 1016.1 |
| 20260506084047 | 1 | 307 | 0.0 | 6.4 | 0.00 | 0.00 | 0.00 | 70 | 1016.0 |
| 20260506083549 | 1 | 253 | 1.6 | 6.4 | 0.00 | 0.00 | 0.00 | 70 | 1016.1 |
| 20260506083056 | 1 | 0 | 0.0 | 6.4 | 0.00 | 0.00 | 0.00 | 70 | 1016.1 |
| 20260506082549 | 1 | 0 | 0.0 | 4.8 | 0.00 | 0.00 | 0.00 | 70 | 1016.1 |
| 20260506082053 | 1 | 203 | 0.0 | 6.4 | 0.00 | 0.00 | 0.00 | 70 | 1016.1 |
| 20260506081556 | 1 | 338 | 1.6 | 6.4 | 0.00 | 0.00 | 0.00 | 70 | 1016.0 |
| 20260506081048 | 1 | 132 | 1.6 | 8.0 | 0.00 | 0.00 | 0.00 | 70 | 1016.1 |
| 20260506080548 | 1 | 111 | 1.6 | 8.0 | 0.00 | 0.00 | 0.00 | 71 | 1016.0 |
| 20260506073104 | 1 | 0 | 1.6 | 4.8 | 0.00 | 0.00 | 0.00 | 74 | 1016.1 |
| 20260506072547 | 0 | 138 | 1.6 | 4.8 | 0.00 | 0.00 | 0.00 | 75 | 1016.2 |
| 20260506072050 | 0 | 121 | 0.0 | 4.8 | 0.00 | 0.00 | 0.00 | 75 | 1016.2 |
| 20260506071610 | 0 | 124 | 1.6 | 4.8 | 0.00 | 0.00 | 0.00 | 76 | 1016.1 |
| 20260506071052 | 0 | 0 | 0.0 | 3.2 | 0.00 | 0.00 | 0.00 | 76 | 1016.3 |
| 20260506070548 | 0 | 0 | 0.0 | 3.2 | 0.00 | 0.00 | 0.00 | 75 | 1016.2 |
| 20260506062048 | 0 | 0 | 0.0 | 3.2 | 0.00 | 0.00 | 0.00 | 71 | 1016.0 |
| 20260506061557 | 0 | 333 | 0.0 | 3.2 | 0.00 | 0.00 | 0.00 | 71 | 1016.1 |
| 20260506061050 | 1 | 0 | 0.0 | 1.6 | 0.00 | 0.00 | 0.00 | 70 | 1016.1 |
| 20260506060547 | 1 | 0 | 0.0 | 0.0 | 0.00 | 0.00 | 0.00 | 70 | 1016.0 |
| 20260506051052 | 2 | 0 | 0.0 | 1.6 | 0.00 | 0.00 | 0.00 | 66 | 1015.7 |
| 20260506050547 | 2 | 0 | 0.0 | 1.6 | 0.00 | 0.00 | 0.00 | 67 | 1015.7 |
| 20260506045048 | 2 | 333 | 0.0 | 3.2 | 0.00 | 0.00 | 0.00 | 67 | 1015.6 |
| 20260506044600 | 2 | 325 | 0.0 | 1.6 | 0.00 | 0.00 | 0.00 | 67 | 1015.5 |
| 20260506044049 | 2 | 0 | 0.0 | 1.6 | 0.00 | 0.00 | 0.00 | 66 | 1015.7 |
| 20260506043549 | 2 | 0 | 0.0 | 1.6 | 0.00 | 0.00 | 0.00 | 67 | 1015.7 |
| 20260506043053 | 2 | 0 | 0.0 | 1.6 | 0.00 | 0.00 | 0.00 | 66 | 1015.6 |
| 20260506042548 | 2 | 325 | 0.0 | 1.6 | 0.00 | 0.00 | 0.00 | 66 | 1015.6 |
| 20260506042050 | 2 | 0 | 0.0 | 4.8 | 0.00 | 0.00 | 0.00 | 66 | 1015.6 |
| 20260506041604 | 2 | 0 | 0.0 | 4.8 | 0.00 | 0.00 | 0.00 | 66 | 1015.5 |
| 20260506041048 | 2 | 0 | 0.0 | 3.2 | 0.00 | 0.00 | 0.00 | 66 | 1015.6 |
| 20260506040547 | 2 | 0 | 0.0 | 3.2 | 0.00 | 0.00 | 0.00 | 65 | 1015.5 |
| 20260506040054 | 2 | 0 | 0.0 | 3.2 | 0.00 | 0.00 | 0.00 | 65 | 1015.6 |
| 20260506035549 | 2 | 0 | 0.0 | 1.6 | 0.00 | 0.00 | 0.00 | 65 | 1015.5 |
| 20260506035049 | 2 | 0 | 0.0 | 1.6 | 0.00 | 0.00 | 0.00 | 64 | 1015.5 |
| 20260506034549 | 3 | 0 | 0.0 | 1.6 | 0.00 | 0.00 | 0.00 | 64 | 1015.3 |
| 20260506034046 | 3 | 0 | 0.0 | 1.6 | 0.00 | 0.00 | 0.00 | 64 | 1015.3 |
| 20260506033551 | 3 | 0 | 0.0 | 1.6 | 0.00 | 0.00 | 0.00 | 63 | 1015.2 |
| 20260506033054 | 3 | 0 | 0.0 | 1.6 | 0.00 | 0.00 | 0.00 | 63 | 1015.1 |
| 20260506032548 | 3 | 0 | 0.0 | 6.4 | 0.00 | 0.00 | 0.00 | 62 | 1015.1 |
| 20260506032048 | 3 | 0 | 0.0 | 6.4 | 0.00 | 0.00 | 0.00 | 62 | 1015.0 |
| 20260506031557 | 3 | 318 | 0.0 | 3.2 | 0.00 | 0.00 | 0.00 | 62 | 1015.0 |
| 20260506031050 | 3 | 0 | 0.0 | 1.6 | 0.00 | 0.00 | 0.00 | 62 | 1014.9 |
| 20260506030552 | 3 | 0 | 0.0 | 3.2 | 0.00 | 0.00 | 0.00 | 62 | 1014.9 |
| 20260506030052 | 3 | 0 | 0.0 | 3.2 | 0.00 | 0.00 | 0.00 | 62 | 1014.8 |
| 20260506025549 | 3 | 0 | 0.0 | 3.2 | 0.00 | 0.00 | 0.00 | 62 | 1014.8 |
| 20260506025048 | 4 | 0 | 0.0 | 1.6 | 0.00 | 0.00 | 0.00 | 62 | 1014.8 |
| 20260506024549 | 4 | 0 | 0.0 | 1.6 | 0.00 | 0.00 | 0.00 | 61 | 1014.6 |
| 20260506024048 | 4 | 0 | 0.0 | 1.6 | 0.00 | 0.00 | 0.00 | 61 | 1014.7 |
| 20260506023551 | 4 | 0 | 0.0 | 1.6 | 0.00 | 0.00 | 0.00 | 60 | 1014.5 |
| 20260506023052 | 4 | 0 | 0.0 | 3.2 | 0.00 | 0.00 | 0.00 | 60 | 1014.5 |
| 20260506022548 | 5 | 0 | 0.0 | 3.2 | 0.00 | 0.00 | 0.00 | 60 | 1014.3 |
| 20260506022048 | 5 | 10 | 0.0 | 3.2 | 0.00 | 0.00 | 0.00 | 60 | 1014.4 |
| 20260506021556 | 5 | 0 | 1.6 | 4.8 | 0.00 | 0.00 | 0.00 | 60 | 1014.4 |
| 20260506021047 | 5 | 10 | 1.6 | 4.8 | 0.00 | 0.00 | 0.00 | 60 | 1014.3 |
| 20260506020547 | 5 | 10 | 0.0 | 3.2 | 0.00 | 0.00 | 0.00 | 59 | 1014.2 |
| 20260506020054 | 5 | 10 | 0.0 | 1.6 | 0.00 | 0.00 | 0.00 | 58 | 1014.2 |
| 20260506015552 | 5 | 0 | 0.0 | 1.6 | 0.00 | 0.00 | 0.00 | 57 | 1014.1 |
| 20260506015046 | 5 | 0 | 0.0 | 4.8 | 0.00 | 0.00 | 0.00 | 57 | 1014.0 |
| 20260506014554 | 5 | 0 | 0.0 | 4.8 | 0.00 | 0.00 | 0.00 | 57 | 1013.9 |
| 20260506014046 | 5 | 10 | 1.6 | 4.8 | 0.00 | 0.00 | 0.00 | 56 | 1013.9 |
| 20260506013547 | 5 | 10 | 1.6 | 4.8 | 0.00 | 0.00 | 0.00 | 55 | 1014.0 |
| 20260506013050 | 6 | 10 | 0.0 | 4.8 | 0.00 | 0.00 | 0.00 | 55 | 1013.9 |